This is the latest recevied weather packets stored in our database for station/object AB0TJ. If no packets are shown the sender has not sent any weather packets the latest 10 day(s).
| Time | Temp. | Humidity | Pressure | Rain* | Wind** | Luminosity | Snow |
|---|---|---|---|---|---|---|---|
| 1777817664 | 12.78° C | 34% | 1018.9 hPa | 0 mm | - | 150 W/m² | - |
| 1777817172 | 12.22° C | 34% | 1018.8 hPa | 0 mm | - | 179 W/m² | - |
| 1777816589 | 11.67° C | 35% | 1019 hPa | 0 mm | - | 153 W/m² | - |
| 1777816099 | 11.11° C | 36% | 1018.7 hPa | 0 mm | - | 136 W/m² | - |
| 1777815584 | 10.56° C | 37% | 1018.8 hPa | 0 mm | - | 88 W/m² | - |
| 1777815037 | 10° C | 37% | 1018.6 hPa | 0 mm | - | 52 W/m² | - |
| 1777814552 | 10° C | 37% | 1018.9 hPa | 0 mm | - | 33 W/m² | - |
| 1777814019 | 10° C | 37% | 1018.5 hPa | 0 mm | - | 27 W/m² | - |
| 1777813504 | 9.44° C | 38% | 1018.7 hPa | 0 mm | - | 28 W/m² | - |
| 1777812933 | 9.44° C | 38% | 1018.3 hPa | 0 mm | - | 25 W/m² | - |
| 1777812359 | 8.89° C | 39% | 1018.5 hPa | 0 mm | - | 20 W/m² | - |
| 1777811829 | 8.89° C | 40% | 1018.4 hPa | 0 mm | - | 14 W/m² | - |
| 1777811299 | 8.89° C | 40% | 1018.4 hPa | 0 mm | - | 8 W/m² | - |
| 1777810784 | 8.89° C | 39% | 1018 hPa | 0 mm | - | 3 W/m² | - |
| 1777810249 | 9.44° C | 39% | 1018.3 hPa | 0 mm | - | 1 W/m² | - |
| 1777809757 | 9.44° C | 39% | 1018.2 hPa | 0 mm | - | 0 W/m² | - |
| 1777809189 | 9.44° C | 38% | 1018.3 hPa | 0 mm | - | 0 W/m² | - |
| 1777808609 | 10° C | 37% | 1018.1 hPa | 0 mm | - | 0 W/m² | - |
| 1777808064 | 10° C | 36% | 1018.1 hPa | 0 mm | - | 0 W/m² | - |
| 1777807491 | 10° C | 36% | 1017.9 hPa | 0 mm | - | 0 W/m² | - |
| 1777806980 | 9.44° C | 36% | 1018.3 hPa | 0 mm | - | 0 W/m² | - |
| 1777806479 | 9.44° C | 37% | 1018.2 hPa | 0 mm | - | 0 W/m² | - |
| 1777805959 | 10° C | 37% | 1018.3 hPa | 0 mm | - | 0 W/m² | - |
| 1777805379 | 9.44° C | 37% | 1018.2 hPa | 0 mm | - | 0 W/m² | - |
| 1777804849 | 9.44° C | 38% | 1018.3 hPa | 0 mm | - | 0 W/m² | - |
* Rain latest hour (hover to see other rain measurements)
** Current wind speed in m/s (hover to see current wind gust speed)